カタログに戻る

STARLINK-32325

運用中通信VLEO
NORAD 61588·PAYLOAD·🇺🇸 United States

打ち上げ Oct 18, 2024 から Cape Canaveral Space Force Station

Loading…

次のパス (今後24時間)

TLE

最新Source: CelesTrak SupGP

元期: Sep 15, 2026, 02:26 UTC

1 61588C 24187Q   26258.10187500 -.00015530  00000+0 -45872-3 0  2587
2 61588  53.1579 261.1744 0001387  93.7370 163.2942 15.34405785    13

AllMySatでSTARLINK-32325をリアルタイム追跡

Download on the App Store